This is the latest recevied weather packets stored in our database for station/object KO4LFZ. If no packets are shown the sender has not sent any weather packets the latest 10 day(s).
| Time | Temp. | Humidity | Pressure | Rain* | Wind** | Luminosity | Snow |
|---|---|---|---|---|---|---|---|
| 1777473989 | 15° C | 96% | 1015 hPa | 0 mm | - | 159 W/m² | - |
| 1777473687 | 15° C | 96% | 1014.9 hPa | 0 mm | - | 131 W/m² | - |
| 1777473383 | 15° C | 96% | 1014.9 hPa | 0 mm | - | 108 W/m² | - |
| 1777473078 | 15° C | 96% | 1014.8 hPa | 0 mm | - | 66 W/m² | - |
| 1777472770 | 15° C | 96% | 1015 hPa | 0 mm | - | 84 W/m² | - |
| 1777472466 | 15° C | 95% | 1014.8 hPa | 0 mm | - | 116 W/m² | - |
| 1777472163 | 15° C | 96% | 1014.6 hPa | 0 mm | - | 119 W/m² | - |
| 1777471858 | 15° C | 95% | 1014.5 hPa | 0 mm | - | 113 W/m² | - |
| 1777471555 | 15° C | 96% | 1014.5 hPa | 0 mm | - | 72 W/m² | - |
| 1777471252 | 15° C | 96% | 1014.6 hPa | 0 mm | - | 51 W/m² | - |
| 1777470949 | 15° C | 96% | 1014.4 hPa | 0 mm | - | 54 W/m² | - |
| 1777470645 | 15° C | 97% | 1014.4 hPa | 0 mm | - | 45 W/m² | - |
| 1777470341 | 15° C | 97% | 1014.4 hPa | 0 mm | - | 38 W/m² | - |
| 1777470038 | 15° C | 97% | 1014.5 hPa | 0 mm | - | 35 W/m² | - |
| 1777469734 | 15° C | 97% | 1014.3 hPa | 0 mm | - | 40 W/m² | - |
| 1777469430 | 15° C | 98% | 1014.2 hPa | 0 mm | - | 39 W/m² | - |
| 1777469125 | 15.56° C | 98% | 1013.9 hPa | 0 mm | - | 42 W/m² | - |
| 1777468825 | 15.56° C | 98% | 1013.7 hPa | 0 mm | - | 39 W/m² | - |
| 1777468522 | 15.56° C | 99% | 1013.7 hPa | 0 mm | - | 38 W/m² | - |
| 1777468218 | 15.56° C | 98% | 1013.5 hPa | 0 mm | - | 35 W/m² | - |
| 1777467915 | 15.56° C | 99% | 1013.3 hPa | 0 mm | - | 30 W/m² | - |
| 1777467611 | 15.56° C | 99% | 1013.4 hPa | 0 mm | - | 24 W/m² | - |
| 1777467306 | 15.56° C | 99% | 1013.4 hPa | 0 mm | - | 27 W/m² | - |
| 1777467002 | 15.56° C | 99% | 1013.3 hPa | 0 mm | - | 20 W/m² | - |
| 1777466700 | 15.56° C | 99% | 1013.2 hPa | 0 mm | - | 19 W/m² | - |
* Rain latest hour (hover to see other rain measurements)
** Current wind speed in m/s (hover to see current wind gust speed)